110  
ASUS44 KOHX 280110  
RWROHX  
MIDDLE TENNESSEE HOURLY WEATHER ROUNDUP  
NATIONAL WEATHER SERVICE NASHVILLE TN  
800 PM CDT SUN MAY 27 2018  
 
NOTE: "FAIR" INDICATES FEW OR NO CLOUDS BELOW 12,000 FEET WITH  
NO SIGNIFICANT WEATHER AND/OR S TO VISIBILITY
.  
 
* THESE REPORTS ARE NOT UNDER NWS QUALITY CONTROL AND MAY NOT  
REPORT WEATHER SUCH AS PRECIPITATION AND FOG.
 
 
 
TNZ005>011-023>034-057-059-062>066-078-080-280200   
..NORTHERN MIDDLE TENNESSEE
 
 
 
CITY SKY/WX TMP DP RH WIND PRES REMARKS
 
CLARKSVILLE N/A 75 67 76 CALM 29.89S  
CROSSVILLE RAIN 68 66 93 SE3 30.00R  
DICKSON CLEAR 72 72 100 CALM 29.91S  
LIVINGSTON CLOUDY 73 68 83 CALM 29.96R  
NASHVILLE CLOUDY 77 67 71 S3 29.91F  
PORTLAND CLEAR 73 68 83 CALM 29.91F  
ROCKWOOD CLEAR 72 66 83 CALM 29.97S  
SMYRNA N/A 72 70 93 SW3 29.92F  
SPARTA PTCLDY 77 72 83 CALM 29.93S  
SPRINGFIELD CLEAR 73 72 94 CALM 29.90F  
WEST NASHVILLE CLEAR 79 68 69 SE6 29.90R  

 
TNZ056-058-060-061-075>077-079-093>097-280200   
..SOUTHERN MIDDLE TENNESSEE
 
 
 
CITY SKY/WX TMP DP RH WIND PRES REMARKS
 
COLUMBIA CLOUDY 72 72 100 S5 29.90S FOG  
FAYETTEVILLE MOCLDY 77 68 73 S13G18 29.92R  
LEWISBURG CLOUDY 70 70 100 CALM 29.92R FOG  
MCMINNVILLE CLOUDY 77 70 78 NW5 29.93S  
MURFREESBORO PTCLDY 75 66 73 E3 29.90S  
PULASKI CLOUDY 75 70 83 CALM 29.91S  
SHELBYVILLE CLOUDY 75 70 83 NW3 29.92R  
TULLAHOMA PTCLDY 77 72 83 CALM 29.92S  
WINCHESTER PTCLDY 75 68 78 S7 29.93R  

 
 
   
..KEY TO REMARKS
 
 
VSB - VISIBILITY IN MILES  
WCI - WIND CHILL INDEX  
HX - HEAT INDEX  
 
 
 
CLICK HERE TO GO TO PREVIOUS BULLETINS.

The Nexlab TN Page Main Text Page